Back to Top

Language: 

My Weather Underground Personal Weather Station Historical Data with Graphs...

Delerius Weather Station Historical Data
Daily Summary for May 16, 2017 Units:  Metric    English   Both
« Previous Day
Next Day »
Daily Weekly Monthly Yearly Custom
  High: Low: Average:
Temperature: 18.7 °C 15.1 °C 16.6 °C
Dew Point: 15.6 °C 13.5 °C 14.3 °C
Humidity: 93 % 78 % 86 %
Wind Speed: 27.4 km/h 0 km/h 15.1 km/h
Wind Gust: 48.3 km/h - -
Wind:- - SW
Pressure: 1020.2 hPa 1017.2 hPa -
Precipitation: 1.27 mm    
Historical Graphs
 
 
Tabular Data for May 16, 2017
Time Temperature Dew Point Pressure Wind Wind Speed Wind Gust Humidity Rainfall Rate (Hourly) solar Conditions
00:04 15.9 °C 14.1 °C 1017.8 hPa SW 16.1 km/h 30.6 km/h 89 % 0 mm 0 W/m2
00:09 15.9 °C 14.1 °C 1018.2 hPa SW 14.5 km/h 30.6 km/h 89 % 0 mm 0 W/m2
00:14 15.9 °C 14.1 °C 1017.8 hPa SW 14.5 km/h 30.6 km/h 89 % 0 mm 0 W/m2
00:19 15.9 °C 14.1 °C 1017.8 hPa SW 16.1 km/h 29 km/h 89 % 0 mm 0 W/m2
00:25 15.9 °C 13.9 °C 1017.8 hPa SW 17.7 km/h 32.2 km/h 88 % 0 mm 0 W/m2
00:30 15.9 °C 13.9 °C 1017.8 hPa SW 17.7 km/h 32.2 km/h 88 % 0 mm 0 W/m2
00:35 15.9 °C 13.9 °C 1017.8 hPa SW 20.9 km/h 33.8 km/h 88 % 0 mm 0 W/m2
00:40 15.9 °C 13.9 °C 1017.8 hPa SW 19.3 km/h 32.2 km/h 88 % 0 mm 0 W/m2
00:46 15.9 °C 13.9 °C 1017.8 hPa SW 20.9 km/h 37 km/h 88 % 0 mm 0 W/m2
00:51 15.9 °C 13.9 °C 1017.5 hPa SW 22.5 km/h 38.6 km/h 88 % 0 mm 0 W/m2
00:56 16 °C 14 °C 1017.5 hPa SW 24.1 km/h 45.1 km/h 88 % 0 mm 0 W/m2
01:01 16 °C 14 °C 1017.5 hPa SW 24.1 km/h 45.1 km/h 88 % 0 mm 0 W/m2
01:06 15.9 °C 13.9 °C 1017.5 hPa SW 22.5 km/h 41.8 km/h 88 % 0 mm 0 W/m2
01:11 15.9 °C 13.9 °C 1017.2 hPa SW 20.9 km/h 41.8 km/h 88 % 0 mm 0 W/m2
01:16 15.9 °C 13.9 °C 1017.2 hPa SW 24.1 km/h 40.2 km/h 88 % 0 mm 0 W/m2
01:21 15.9 °C 13.9 °C 1017.2 hPa SW 24.1 km/h 40.2 km/h 88 % 0 mm 0 W/m2
01:26 15.9 °C 13.9 °C 1017.5 hPa SW 24.1 km/h 40.2 km/h 88 % 0 mm 0 W/m2
01:31 15.9 °C 13.9 °C 1017.2 hPa SW 24.1 km/h 40.2 km/h 88 % 0 mm 0 W/m2
01:36 15.9 °C 13.9 °C 1017.5 hPa SW 22.5 km/h 38.6 km/h 88 % 0 mm 0 W/m2
01:41 15.9 °C 13.9 °C 1017.5 hPa SW 19.3 km/h 38.6 km/h 88 % 0 mm 0 W/m2
01:46 15.9 °C 13.9 °C 1017.5 hPa SW 19.3 km/h 43.5 km/h 88 % 0 mm 0 W/m2
01:51 15.9 °C 13.9 °C 1017.5 hPa SW 20.9 km/h 43.5 km/h 88 % 0 mm 0 W/m2
01:56 15.9 °C 13.9 °C 1017.2 hPa SW 22.5 km/h 38.6 km/h 88 % 0 mm 0 W/m2
02:01 15.9 °C 13.9 °C 1017.2 hPa SW 22.5 km/h 38.6 km/h 88 % 0 mm 0 W/m2
02:06 16 °C 14 °C 1017.5 hPa SW 24.1 km/h 41.8 km/h 88 % 0 mm 0 W/m2
02:11 16 °C 14 °C 1017.5 hPa SW 24.1 km/h 41.8 km/h 88 % 0 mm 0 W/m2
02:16 16.1 °C 13.9 °C 1017.2 hPa SW 24.1 km/h 40.2 km/h 87 % 0 mm 0 W/m2
02:21 16 °C 13.8 °C 1017.2 hPa SW 22.5 km/h 40.2 km/h 87 % 0 mm 0 W/m2
02:26 16 °C 13.8 °C 1017.2 hPa SW 24.1 km/h 40.2 km/h 87 % 0 mm 0 W/m2
02:31 16 °C 13.8 °C 1017.2 hPa SW 24.1 km/h 40.2 km/h 87 % 0 mm 0 W/m2
02:36 16 °C 13.8 °C 1017.2 hPa SW 22.5 km/h 38.6 km/h 87 % 0 mm 0 W/m2
02:41 16 °C 13.8 °C 1017.2 hPa SW 24.1 km/h 40.2 km/h 87 % 0 mm 0 W/m2
02:46 16 °C 13.8 °C 1017.2 hPa SW 25.7 km/h 45.1 km/h 87 % 0 mm 0 W/m2
02:51 16 °C 13.8 °C 1017.2 hPa SW 25.7 km/h 45.1 km/h 87 % 0 mm 0 W/m2
02:56 16 °C 13.8 °C 1017.2 hPa SW 24.1 km/h 41.8 km/h 87 % 0 mm 0 W/m2
03:01 16 °C 13.8 °C 1017.2 hPa SW 24.1 km/h 41.8 km/h 87 % 0 mm 0 W/m2
03:06 16 °C 13.8 °C 1017.2 hPa SW 24.1 km/h 41.8 km/h 87 % 0 mm 0 W/m2
03:11 16 °C 13.8 °C 1017.2 hPa SW 24.1 km/h 38.6 km/h 87 % 0 mm 0 W/m2
03:16 15.9 °C 13.7 °C 1017.2 hPa SW 22.5 km/h 37 km/h 87 % 0 mm 0 W/m2
03:21 15.9 °C 13.7 °C 1017.5 hPa SW 20.9 km/h 37 km/h 87 % 0 mm 0 W/m2
03:26 16 °C 13.8 °C 1017.5 hPa SW 24.1 km/h 38.6 km/h 87 % 0 mm 0 W/m2
03:31 16.1 °C 13.9 °C 1017.2 hPa SW 25.7 km/h 48.3 km/h 87 % 0 mm 0 W/m2
03:37 16.1 °C 13.8 °C 1017.5 hPa SW 25.7 km/h 48.3 km/h 86 % 0 mm 0 W/m2
03:41 16.1 °C 13.8 °C 1017.5 hPa SW 27.4 km/h 41.8 km/h 86 % 0 mm 0 W/m2
03:47 16.1 °C 13.8 °C 1017.5 hPa SW 25.7 km/h 41.8 km/h 86 % 0 mm 0 W/m2
03:50 16.1 °C 13.8 °C 1017.5 hPa SW 24.1 km/h 41.8 km/h 86 % 0 mm 0 W/m2
03:55 16.1 °C 13.8 °C 1017.5 hPa SW 20.9 km/h 41.8 km/h 86 % 0 mm 0 W/m2
04:00 16 °C 13.7 °C 1017.5 hPa SW 19.3 km/h 35.4 km/h 86 % 0 mm 0 W/m2
04:05 15.9 °C 13.7 °C 1017.5 hPa SW 19.3 km/h 30.6 km/h 87 % 0 mm 0 W/m2
04:10 15.9 °C 13.7 °C 1017.5 hPa SW 17.7 km/h 29 km/h 87 % 0 mm 0 W/m2
04:15 15.9 °C 13.7 °C 1017.2 hPa SW 16.1 km/h 25.7 km/h 87 % 0 mm 0 W/m2
04:20 15.9 °C 13.7 °C 1017.5 hPa SW 17.7 km/h 25.7 km/h 87 % 0 mm 0 W/m2
04:25 15.9 °C 13.7 °C 1017.5 hPa SW 19.3 km/h 30.6 km/h 87 % 0 mm 0 W/m2
04:30 15.9 °C 13.7 °C 1017.5 hPa SW 20.9 km/h 33.8 km/h 87 % 0 mm 0 W/m2
04:35 15.9 °C 13.7 °C 1017.5 hPa SW 20.9 km/h 33.8 km/h 87 % 0 mm 0 W/m2
04:41 15.9 °C 13.7 °C 1017.5 hPa SW 19.3 km/h 33.8 km/h 87 % 0 mm 0 W/m2
04:46 15.8 °C 13.7 °C 1017.5 hPa SSW 17.7 km/h 30.6 km/h 87 % 0 mm 0 W/m2
04:51 15.8 °C 13.7 °C 1017.5 hPa SW 17.7 km/h 30.6 km/h 87 % 0 mm 0 W/m2
04:56 15.8 °C 13.7 °C 1017.5 hPa SW 17.7 km/h 29 km/h 87 % 0 mm 0 W/m2
05:01 15.8 °C 13.7 °C 1017.5 hPa SW 19.3 km/h 29 km/h 87 % 0 mm 0 W/m2
05:06 15.8 °C 13.7 °C 1017.5 hPa SSW 19.3 km/h 30.6 km/h 87 % 0 mm 0 W/m2
05:11 15.8 °C 13.7 °C 1017.5 hPa SSW 19.3 km/h 35.4 km/h 87 % 0 mm 0 W/m2
05:16 15.8 °C 13.7 °C 1017.8 hPa SW 17.7 km/h 35.4 km/h 87 % 0 mm 5 W/m2
05:17 15.8 °C 13.7 °C 1017.8 hPa SW 17.7 km/h 30.6 km/h 87 % 0 mm 5 W/m2
05:22 15.8 °C 13.7 °C 1017.5 hPa SW 17.7 km/h 33.8 km/h 87 % 0 mm 7 W/m2
05:27 15.8 °C 13.7 °C 1017.8 hPa SW 19.3 km/h 33.8 km/h 87 % 0 mm 9 W/m2
05:32 15.8 °C 13.7 °C 1017.5 hPa SW 19.3 km/h 30.6 km/h 87 % 0 mm 9 W/m2
05:37 15.8 °C 13.7 °C 1017.5 hPa SW 19.3 km/h 32.2 km/h 87 % 0 mm 11 W/m2
05:42 15.8 °C 13.7 °C 1017.5 hPa SW 19.3 km/h 32.2 km/h 87 % 0 mm 12 W/m2
05:47 15.8 °C 13.7 °C 1017.5 hPa SSW 19.3 km/h 37 km/h 87 % 0 mm 16 W/m2
05:52 15.8 °C 13.7 °C 1017.5 hPa SSW 19.3 km/h 37 km/h 87 % 0 mm 18 W/m2
05:57 15.8 °C 13.7 °C 1017.5 hPa SSW 19.3 km/h 35.4 km/h 87 % 0 mm 19 W/m2
06:02 15.7 °C 13.6 °C 1017.5 hPa SSW 19.3 km/h 30.6 km/h 87 % 0 mm 23 W/m2
06:07 15.7 °C 13.6 °C 1017.5 hPa SSW 19.3 km/h 30.6 km/h 87 % 0 mm 25 W/m2
06:12 15.7 °C 13.6 °C 1017.5 hPa SSW 17.7 km/h 35.4 km/h 87 % 0 mm 25 W/m2
06:17 15.7 °C 13.6 °C 1017.5 hPa SSW 17.7 km/h 35.4 km/h 87 % 0 mm 23 W/m2
06:22 15.7 °C 13.6 °C 1017.5 hPa SSW 17.7 km/h 30.6 km/h 87 % 0 mm 23 W/m2
06:27 15.7 °C 13.6 °C 1017.5 hPa SSW 17.7 km/h 30.6 km/h 87 % 0 mm 25 W/m2
06:33 15.7 °C 13.6 °C 1017.5 hPa SSW 16.1 km/h 29 km/h 87 % 0 mm 23 W/m2
06:38 15.7 °C 13.6 °C 1017.8 hPa SSW 16.1 km/h 29 km/h 87 % 0 mm 23 W/m2
06:43 15.7 °C 13.7 °C 1017.8 hPa SSW 14.5 km/h 24.1 km/h 88 % 0 mm 28 W/m2
06:48 15.7 °C 13.7 °C 1017.8 hPa SSW 14.5 km/h 24.1 km/h 88 % 0 mm 30 W/m2
06:53 15.7 °C 13.7 °C 1017.8 hPa SSW 14.5 km/h 22.5 km/h 88 % 0 mm 30 W/m2
06:58 15.7 °C 13.7 °C 1017.8 hPa SSW 12.9 km/h 22.5 km/h 88 % 0 mm 28 W/m2
07:03 15.7 °C 13.7 °C 1017.8 hPa SSW 12.9 km/h 22.5 km/h 88 % 0 mm 33 W/m2
07:08 15.7 °C 13.7 °C 1017.8 hPa SSW 12.9 km/h 22.5 km/h 88 % 0 mm 33 W/m2
07:13 15.7 °C 13.7 °C 1017.8 hPa SSW 12.9 km/h 24.1 km/h 88 % 0 mm 33 W/m2
07:18 15.7 °C 13.7 °C 1017.8 hPa SSW 12.9 km/h 24.1 km/h 88 % 0 mm 33 W/m2
07:23 15.7 °C 13.6 °C 1017.8 hPa SSW 12.9 km/h 20.9 km/h 87 % 0 mm 35 W/m2
07:28 15.8 °C 13.7 °C 1017.8 hPa SSW 12.9 km/h 22.5 km/h 87 % 0 mm 33 W/m2
07:33 15.8 °C 13.7 °C 1017.5 hPa SSW 14.5 km/h 24.1 km/h 87 % 0 mm 35 W/m2
07:38 15.8 °C 13.7 °C 1017.8 hPa SSW 11.3 km/h 24.1 km/h 87 % 0 mm 46 W/m2
07:43 15.8 °C 13.7 °C 1017.8 hPa SSW 9.7 km/h 19.3 km/h 87 % 0 mm 54 W/m2
07:48 15.9 °C 13.7 °C 1017.8 hPa SSW 11.3 km/h 19.3 km/h 87 % 0 mm 47 W/m2
07:53 15.9 °C 13.7 °C 1017.8 hPa SSW 11.3 km/h 17.7 km/h 87 % 0 mm 44 W/m2
07:58 15.9 °C 13.7 °C 1017.8 hPa SW 9.7 km/h 17.7 km/h 87 % 0 mm 39 W/m2
08:03 16 °C 13.7 °C 1017.8 hPa SW 11.3 km/h 24.1 km/h 86 % 0 mm 44 W/m2
08:08 16.1 °C 13.8 °C 1017.8 hPa SW 12.9 km/h 24.1 km/h 86 % 0 mm 39 W/m2
08:13 16.1 °C 13.8 °C 1017.8 hPa SW 11.3 km/h 20.9 km/h 86 % 0 mm 39 W/m2
08:18 16.1 °C 13.8 °C 1017.8 hPa SW 9.7 km/h 16.1 km/h 86 % 0 mm 42 W/m2
08:23 16.1 °C 13.9 °C 1017.8 hPa SSW 11.3 km/h 16.1 km/h 87 % 0 mm 51 W/m2
08:27 16 °C 14 °C 1017.8 hPa SW 11.3 km/h 19.3 km/h 88 % 0 mm 46 W/m2
08:32 15.9 °C 13.9 °C 1017.8 hPa SSW 11.3 km/h 20.9 km/h 88 % 0 mm 74 W/m2
08:37 15.9 °C 13.9 °C 1017.8 hPa SSW 6.4 km/h 20.9 km/h 88 % 0 mm 81 W/m2
08:42 15.9 °C 14.1 °C 1017.8 hPa SSW 3.2 km/h 11.3 km/h 89 % 0 mm 83 W/m2
08:47 15.9 °C 14.1 °C 1017.8 hPa SSW 3.2 km/h 8 km/h 89 % 0 mm 72 W/m2
08:52 15.9 °C 14.1 °C 1017.8 hPa SSW 1.6 km/h 9.7 km/h 89 % 0 mm 63 W/m2
08:57 15.9 °C 14.1 °C 1017.8 hPa South 4.8 km/h 14.5 km/h 89 % 0.25 mm 74 W/m2
09:02 15.9 °C 14.1 °C 1018.2 hPa South 8 km/h 16.1 km/h 89 % 0.25 mm 90 W/m2
09:07 15.9 °C 14.1 °C 1018.2 hPa SSW 9.7 km/h 17.7 km/h 89 % 0.25 mm 105 W/m2
09:12 15.9 °C 14.3 °C 1018.2 hPa SSW 9.7 km/h 17.7 km/h 90 % 0.25 mm 107 W/m2
09:17 15.9 °C 14.3 °C 1017.8 hPa SSW 9.7 km/h 25.7 km/h 90 % 0.25 mm 120 W/m2
09:19 15.9 °C 14.3 °C 1017.8 hPa SSW 9.7 km/h 25.7 km/h 90 % 0.25 mm 107 W/m2
09:24 15.9 °C 14.3 °C 1018.2 hPa SSW 9.7 km/h 22.5 km/h 90 % 0.25 mm 90 W/m2
09:29 15.9 °C 14.3 °C 1018.2 hPa SSW 11.3 km/h 22.5 km/h 90 % 0.25 mm 111 W/m2
09:34 16.1 °C 14.4 °C 1018.2 hPa South 9.7 km/h 14.5 km/h 90 % 0.25 mm 125 W/m2
09:39 16.1 °C 14.4 °C 1018.2 hPa South 8 km/h 17.7 km/h 90 % 0.25 mm 121 W/m2
09:44 16.2 °C 14.4 °C 1018.2 hPa SSW 9.7 km/h 17.7 km/h 89 % 0.25 mm 137 W/m2
09:49 16.2 °C 14.6 °C 1018.5 hPa SSW 11.3 km/h 20.9 km/h 90 % 0.25 mm 130 W/m2
09:54 16.3 °C 14.5 °C 1018.5 hPa SSW 12.9 km/h 25.7 km/h 89 % 0.25 mm 146 W/m2
09:59 16.4 °C 14.6 °C 1018.5 hPa SW 16.1 km/h 25.7 km/h 89 % 0 mm 76 W/m2
10:04 16.4 °C 14.6 °C 1018.2 hPa SW 16.1 km/h 25.7 km/h 89 % 0 mm 40 W/m2
10:09 16.3 °C 14.5 °C 1018.2 hPa SW 16.1 km/h 25.7 km/h 89 % 0.25 mm 60 W/m2
10:14 16.2 °C 14.6 °C 1018.2 hPa SW 12.9 km/h 24.1 km/h 90 % 0.51 mm 116 W/m2
10:19 16.1 °C 14.6 °C 1018.2 hPa SSW 14.5 km/h 30.6 km/h 91 % 0.51 mm 118 W/m2
10:24 16.1 °C 14.6 °C 1018.2 hPa SSW 12.9 km/h 30.6 km/h 91 % 0.51 mm 127 W/m2
10:29 16.1 °C 14.8 °C 1018.2 hPa SSW 11.3 km/h 20.9 km/h 92 % 0.51 mm 141 W/m2
10:34 16.1 °C 14.8 °C 1018.2 hPa SSW 11.3 km/h 20.9 km/h 92 % 0.51 mm 134 W/m2
10:39 16.1 °C 14.8 °C 1018.2 hPa SW 11.3 km/h 20.9 km/h 92 % 0.51 mm 116 W/m2
10:44 16.1 °C 14.8 °C 1018.2 hPa SW 9.7 km/h 20.9 km/h 92 % 0.51 mm 100 W/m2
10:49 16.1 °C 14.8 °C 1018.2 hPa SW 11.3 km/h 22.5 km/h 92 % 0.51 mm 81 W/m2
10:50 16.1 °C 14.8 °C 1018.2 hPa SW 11.3 km/h 22.5 km/h 92 % 0.51 mm 88 W/m2
10:55 16.1 °C 14.8 °C 1018.2 hPa SSW 11.3 km/h 22.5 km/h 92 % 0.51 mm 128 W/m2
11:00 16.1 °C 14.9 °C 1018.2 hPa SSW 12.9 km/h 20.9 km/h 93 % 0.51 mm 155 W/m2
11:05 16.1 °C 14.9 °C 1018.2 hPa SSW 14.5 km/h 24.1 km/h 93 % 0.76 mm 213 W/m2
11:10 16.1 °C 14.9 °C 1018.2 hPa SSW 14.5 km/h 24.1 km/h 93 % 0.51 mm 229 W/m2
11:15 16.2 °C 15.1 °C 1017.8 hPa SSW 14.5 km/h 22.5 km/h 93 % 0.51 mm 209 W/m2
11:20 16.3 °C 15.2 °C 1018.2 hPa SSW 14.5 km/h 22.5 km/h 93 % 0.51 mm 178 W/m2
11:25 16.4 °C 15.3 °C 1017.8 hPa SSW 12.9 km/h 22.5 km/h 93 % 0.51 mm 156 W/m2
11:30 16.4 °C 15.3 °C 1018.2 hPa SSW 12.9 km/h 22.5 km/h 93 % 0.51 mm 153 W/m2
11:35 16.4 °C 15.1 °C 1018.2 hPa SW 14.5 km/h 25.7 km/h 92 % 0.51 mm 151 W/m2
11:41 16.4 °C 15.1 °C 1018.2 hPa SW 16.1 km/h 25.7 km/h 92 % 0.51 mm 151 W/m2
11:46 16.4 °C 15.1 °C 1017.8 hPa SW 17.7 km/h 35.4 km/h 92 % 0.51 mm 127 W/m2
11:51 16.4 °C 15.1 °C 1017.8 hPa SSW 17.7 km/h 35.4 km/h 92 % 0.25 mm 104 W/m2
11:56 16.4 °C 15.1 °C 1017.8 hPa SSW 16.1 km/h 29 km/h 92 % 0.25 mm 144 W/m2
12:01 16.4 °C 15.1 °C 1017.8 hPa SW 14.5 km/h 25.7 km/h 92 % 0.51 mm 232 W/m2
12:06 16.6 °C 15.4 °C 1017.8 hPa SW 11.3 km/h 24.1 km/h 93 % 0.25 mm 269 W/m2
12:11 16.7 °C 15.6 °C 1017.8 hPa SW 11.3 km/h 20.9 km/h 93 % 0.25 mm 246 W/m2
12:16 16.7 °C 15.6 °C 1017.8 hPa SW 14.5 km/h 30.6 km/h 93 % 0.25 mm 221 W/m2
12:21 16.7 °C 15.4 °C 1017.8 hPa SW 17.7 km/h 30.6 km/h 92 % 0.25 mm 281 W/m2
12:26 16.8 °C 15.3 °C 1017.8 hPa SSW 17.7 km/h 30.6 km/h 91 % 0.25 mm 229 W/m2
12:32 16.8 °C 15.3 °C 1017.8 hPa SSW 19.3 km/h 37 km/h 91 % 0.25 mm 257 W/m2
12:37 16.8 °C 15.2 °C 1017.8 hPa SSW 19.3 km/h 37 km/h 90 % 0.25 mm 234 W/m2
12:42 16.8 °C 15.2 °C 1017.8 hPa SSW 17.7 km/h 35.4 km/h 90 % 0.25 mm 200 W/m2
12:47 16.8 °C 15.2 °C 1017.8 hPa SSW 17.7 km/h 35.4 km/h 90 % 0.25 mm 329 W/m2
12:52 16.9 °C 15.1 °C 1017.8 hPa SW 19.3 km/h 32.2 km/h 89 % 0.25 mm 327 W/m2
12:57 17 °C 15.3 °C 1017.8 hPa SW 19.3 km/h 32.2 km/h 90 % 0.25 mm 221 W/m2
13:02 17 °C 15.2 °C 1017.8 hPa SW 17.7 km/h 32.2 km/h 89 % 0 mm 179 W/m2
13:07 17 °C 15.2 °C 1017.8 hPa SW 17.7 km/h 32.2 km/h 89 % 0 mm 142 W/m2
13:12 16.9 °C 14.9 °C 1017.8 hPa SW 17.7 km/h 33.8 km/h 88 % 0 mm 151 W/m2
13:17 16.9 °C 14.9 °C 1017.8 hPa SW 19.3 km/h 33.8 km/h 88 % 0 mm 186 W/m2
13:22 16.9 °C 14.9 °C 1017.8 hPa SW 16.1 km/h 30.6 km/h 88 % 0 mm 144 W/m2
13:27 16.9 °C 14.9 °C 1018.2 hPa SW 14.5 km/h 30.6 km/h 88 % 0 mm 111 W/m2
13:32 17 °C 15 °C 1018.2 hPa SW 14.5 km/h 30.6 km/h 88 % 0 mm 105 W/m2
13:37 17 °C 15 °C 1018.2 hPa SW 12.9 km/h 29 km/h 88 % 0 mm 130 W/m2
13:42 17 °C 15 °C 1018.2 hPa SW 16.1 km/h 29 km/h 88 % 0 mm 148 W/m2
13:47 17.1 °C 14.9 °C 1018.2 hPa SW 16.1 km/h 29 km/h 87 % 0 mm 229 W/m2
13:52 17.2 °C 15.2 °C 1017.8 hPa SW 14.5 km/h 30.6 km/h 88 % 0 mm 211 W/m2
13:57 17.3 °C 15.3 °C 1017.8 hPa SW 14.5 km/h 30.6 km/h 88 % 0 mm 376 W/m2
14:02 17.5 °C 15.3 °C 1017.8 hPa SSW 14.5 km/h 25.7 km/h 87 % 0 mm 279 W/m2
14:07 17.7 °C 15.3 °C 1017.8 hPa SW 14.5 km/h 25.7 km/h 86 % 0 mm 195 W/m2
14:12 17.8 °C 15.2 °C 1018.2 hPa SW 16.1 km/h 32.2 km/h 85 % 0 mm 172 W/m2
14:17 17.9 °C 15.3 °C 1018.2 hPa SW 14.5 km/h 32.2 km/h 85 % 0 mm 139 W/m2
14:22 17.9 °C 15.2 °C 1018.2 hPa SW 16.1 km/h 35.4 km/h 84 % 0 mm 160 W/m2
14:27 17.9 °C 15.2 °C 1018.2 hPa SW 19.3 km/h 35.4 km/h 84 % 0 mm 192 W/m2
14:32 18 °C 15.3 °C 1018.2 hPa SW 17.7 km/h 33.8 km/h 84 % 0 mm 200 W/m2
14:37 18 °C 15.1 °C 1018.2 hPa SW 17.7 km/h 35.4 km/h 83 % 0 mm 83 W/m2
14:42 17.9 °C 14.9 °C 1018.5 hPa SW 17.7 km/h 35.4 km/h 83 % 0 mm 49 W/m2
14:47 17.8 °C 15.1 °C 1018.5 hPa SW 16.1 km/h 32.2 km/h 84 % 0 mm 93 W/m2
14:52 17.8 °C 15.1 °C 1018.5 hPa SW 17.7 km/h 32.2 km/h 84 % 0 mm 253 W/m2
14:58 17.8 °C 15.1 °C 1018.5 hPa SW 19.3 km/h 32.2 km/h 84 % 0 mm 301 W/m2
15:03 17.9 °C 15.2 °C 1018.5 hPa SW 19.3 km/h 35.4 km/h 84 % 0 mm 183 W/m2
15:08 17.7 °C 15.3 °C 1018.5 hPa SW 19.3 km/h 35.4 km/h 86 % 0 mm 204 W/m2
15:13 17.4 °C 15.2 °C 1018.5 hPa SW 19.3 km/h 35.4 km/h 87 % 0 mm 86 W/m2
15:18 17.3 °C 15.1 °C 1018.2 hPa SW 19.3 km/h 35.4 km/h 87 % 0 mm 155 W/m2
15:23 17.4 °C 15.2 °C 1018.2 hPa SW 16.1 km/h 30.6 km/h 87 % 0 mm 283 W/m2
15:28 17.6 °C 15.4 °C 1018.2 hPa SW 14.5 km/h 25.7 km/h 87 % 0 mm 241 W/m2
15:33 17.8 °C 15.6 °C 1018.2 hPa SW 14.5 km/h 25.7 km/h 87 % 0 mm 163 W/m2
15:38 17.9 °C 15.3 °C 1018.5 hPa SW 14.5 km/h 29 km/h 85 % 0 mm 123 W/m2
15:43 17.9 °C 15.2 °C 1018.5 hPa SW 16.1 km/h 29 km/h 84 % 0 mm 209 W/m2
15:48 18 °C 15.3 °C 1018.5 hPa SW 16.1 km/h 33.8 km/h 84 % 0 mm 225 W/m2
15:53 18.1 °C 15.2 °C 1018.5 hPa SW 16.1 km/h 33.8 km/h 83 % 0 mm 264 W/m2
15:58 18.1 °C 15 °C 1018.5 hPa SW 17.7 km/h 32.2 km/h 82 % 0 mm 260 W/m2
16:03 18.2 °C 14.9 °C 1018.5 hPa SW 17.7 km/h 32.2 km/h 81 % 0 mm 125 W/m2
16:08 18.2 °C 15.1 °C 1018.5 hPa SW 14.5 km/h 24.1 km/h 82 % 0 mm 118 W/m2
16:13 18.2 °C 14.9 °C 1018.5 hPa SW 14.5 km/h 22.5 km/h 81 % 0 mm 134 W/m2
16:18 18.2 °C 14.9 °C 1018.5 hPa SW 14.5 km/h 25.7 km/h 81 % 0 mm 153 W/m2
16:23 18.2 °C 14.9 °C 1018.5 hPa SW 14.5 km/h 25.7 km/h 81 % 0 mm 148 W/m2
16:28 18.2 °C 14.9 °C 1018.5 hPa SW 16.1 km/h 29 km/h 81 % 0 mm 178 W/m2
16:33 18.1 °C 14.8 °C 1018.5 hPa SW 17.7 km/h 33.8 km/h 81 % 0 mm 229 W/m2
16:38 18.1 °C 14.8 °C 1018.5 hPa SW 19.3 km/h 33.8 km/h 81 % 0 mm 255 W/m2
16:43 18.2 °C 14.9 °C 1018.5 hPa SW 20.9 km/h 33.8 km/h 81 % 0 mm 399 W/m2
16:48 18.3 °C 14.8 °C 1018.5 hPa SW 19.3 km/h 33.8 km/h 80 % 0 mm 338 W/m2
16:53 18.5 °C 15 °C 1018.5 hPa SW 19.3 km/h 30.6 km/h 80 % 0 mm 378 W/m2
16:58 18.6 °C 14.9 °C 1018.5 hPa SW 19.3 km/h 32.2 km/h 79 % 0 mm 297 W/m2
17:03 18.7 °C 15 °C 1018.5 hPa SW 20.9 km/h 32.2 km/h 79 % 0 mm 181 W/m2
17:08 18.5 °C 14.8 °C 1018.8 hPa SW 22.5 km/h 33.8 km/h 79 % 0 mm 95 W/m2
17:13 18.3 °C 14.8 °C 1018.8 hPa SW 22.5 km/h 38.6 km/h 80 % 0 mm 111 W/m2
17:18 18.2 °C 14.7 °C 1018.8 hPa SW 19.3 km/h 38.6 km/h 80 % 0 mm 183 W/m2
17:23 18.2 °C 14.7 °C 1018.8 hPa SW 19.3 km/h 32.2 km/h 80 % 0 mm 146 W/m2
17:28 18.2 °C 14.7 °C 1018.8 hPa SSW 20.9 km/h 35.4 km/h 80 % 0 mm 113 W/m2
17:33 18.1 °C 14.6 °C 1018.8 hPa SW 20.9 km/h 41.8 km/h 80 % 0 mm 155 W/m2
17:38 18.1 °C 14.6 °C 1018.5 hPa SW 19.3 km/h 41.8 km/h 80 % 0 mm 190 W/m2
17:44 18.2 °C 14.7 °C 1018.5 hPa SW 19.3 km/h 33.8 km/h 80 % 0 mm 346 W/m2
17:49 18.3 °C 14.6 °C 1018.5 hPa SW 20.9 km/h 35.4 km/h 79 % 0 mm 216 W/m2
17:54 18.3 °C 14.6 °C 1018.5 hPa SW 22.5 km/h 37 km/h 79 % 0 mm 206 W/m2
17:59 18.4 °C 14.5 °C 1018.5 hPa SW 20.9 km/h 37 km/h 78 % 0 mm 195 W/m2
18:04 18.4 °C 14.7 °C 1018.8 hPa SW 20.9 km/h 33.8 km/h 79 % 0 mm 162 W/m2
18:09 18.3 °C 14.4 °C 1018.5 hPa SSW 20.9 km/h 33.8 km/h 78 % 0 mm 120 W/m2
18:14 18.2 °C 14.5 °C 1018.5 hPa SW 19.3 km/h 30.6 km/h 79 % 0 mm 132 W/m2
18:19 18.1 °C 14.4 °C 1018.8 hPa SW 19.3 km/h 30.6 km/h 79 % 0 mm 107 W/m2
18:24 18.1 °C 14.6 °C 1018.8 hPa SW 17.7 km/h 30.6 km/h 80 % 0 mm 90 W/m2
18:29 18 °C 14.5 °C 1018.8 hPa SW 16.1 km/h 30.6 km/h 80 % 0 mm 81 W/m2
18:34 17.9 °C 14.4 °C 1018.8 hPa SW 17.7 km/h 32.2 km/h 80 % 0 mm 46 W/m2
18:39 17.8 °C 14.3 °C 1018.8 hPa SW 17.7 km/h 32.2 km/h 80 % 0 mm 54 W/m2
18:44 17.8 °C 14.3 °C 1018.8 hPa SW 16.1 km/h 24.1 km/h 80 % 0 mm 84 W/m2
18:49 17.8 °C 14.3 °C 1018.8 hPa SW 14.5 km/h 25.7 km/h 80 % 0 mm 72 W/m2
18:54 17.7 °C 14.2 °C 1018.8 hPa SW 14.5 km/h 25.7 km/h 80 % 0 mm 56 W/m2
18:59 17.7 °C 14.4 °C 1018.8 hPa SW 12.9 km/h 22.5 km/h 81 % 0 mm 46 W/m2
19:04 17.7 °C 14.4 °C 1018.8 hPa SW 12.9 km/h 25.7 km/h 81 % 0 mm 79 W/m2
19:09 17.7 °C 14.4 °C 1018.8 hPa SW 14.5 km/h 25.7 km/h 81 % 0 mm 98 W/m2
19:14 17.6 °C 14.3 °C 1018.8 hPa SW 14.5 km/h 22.5 km/h 81 % 0 mm 65 W/m2
19:19 17.6 °C 14.3 °C 1018.8 hPa SW 12.9 km/h 24.1 km/h 81 % 0 mm 74 W/m2
19:24 17.6 °C 14.3 °C 1018.8 hPa SW 12.9 km/h 24.1 km/h 81 % 0 mm 84 W/m2
19:29 17.5 °C 14.4 °C 1018.8 hPa SW 12.9 km/h 24.1 km/h 82 % 0 mm 58 W/m2
19:34 17.5 °C 14.4 °C 1018.8 hPa SW 12.9 km/h 22.5 km/h 82 % 0 mm 56 W/m2
19:39 17.4 °C 14.3 °C 1019.2 hPa SW 12.9 km/h 20.9 km/h 82 % 0 mm 39 W/m2
19:44 17.4 °C 14.3 °C 1019.2 hPa SW 12.9 km/h 17.7 km/h 82 % 0 mm 44 W/m2
19:49 17.4 °C 14.3 °C 1019.2 hPa SW 12.9 km/h 17.7 km/h 82 % 0 mm 37 W/m2
19:54 17.3 °C 14.2 °C 1019.2 hPa SW 12.9 km/h 19.3 km/h 82 % 0 mm 37 W/m2
19:59 17.3 °C 14.2 °C 1019.2 hPa SW 12.9 km/h 20.9 km/h 82 % 0 mm 40 W/m2
20:04 17.2 °C 14.3 °C 1019.2 hPa SW 14.5 km/h 20.9 km/h 83 % 0 mm 37 W/m2
20:09 17.2 °C 14.3 °C 1019.2 hPa SW 14.5 km/h 20.9 km/h 83 % 0 mm 30 W/m2
20:14 17.2 °C 14.3 °C 1019.2 hPa SW 12.9 km/h 20.9 km/h 83 % 0 mm 30 W/m2
20:19 17.1 °C 14.2 °C 1019.2 hPa SW 11.3 km/h 20.9 km/h 83 % 0 mm 18 W/m2
20:24 17.1 °C 14 °C 1019.2 hPa SW 12.9 km/h 20.9 km/h 82 % 0 mm 16 W/m2
20:29 17.1 °C 14.2 °C 1019.5 hPa SW 12.9 km/h 20.9 km/h 83 % 0 mm 16 W/m2
20:34 17.1 °C 14.2 °C 1019.5 hPa SW 11.3 km/h 24.1 km/h 83 % 0 mm 12 W/m2
20:39 17.1 °C 14.2 °C 1019.5 hPa SW 11.3 km/h 24.1 km/h 83 % 0 mm 9 W/m2
20:44 16.9 °C 14 °C 1019.5 hPa SW 11.3 km/h 20.9 km/h 83 % 0 mm 11 W/m2
20:50 16.9 °C 14.2 °C 1019.5 hPa SW 11.3 km/h 17.7 km/h 84 % 0 mm 11 W/m2
20:55 16.8 °C 14.1 °C 1019.5 hPa SW 9.7 km/h 16.1 km/h 84 % 0 mm 12 W/m2
21:00 16.7 °C 14 °C 1019.5 hPa SW 9.7 km/h 17.7 km/h 84 % 0 mm 9 W/m2
21:05 16.7 °C 14 °C 1019.5 hPa SW 9.7 km/h 17.7 km/h 84 % 0 mm 7 W/m2
21:10 16.6 °C 13.9 °C 1019.5 hPa SW 9.7 km/h 17.7 km/h 84 % 0 mm 7 W/m2
21:15 16.6 °C 13.9 °C 1019.5 hPa SW 12.9 km/h 20.9 km/h 84 % 0 mm 0 W/m2
21:20 16.6 °C 13.7 °C 1019.9 hPa SW 12.9 km/h 20.9 km/h 83 % 0 mm 0 W/m2
21:25 16.6 °C 13.7 °C 1019.9 hPa SW 12.9 km/h 19.3 km/h 83 % 0 mm 0 W/m2
21:30 16.6 °C 13.7 °C 1019.9 hPa WSW 11.3 km/h 19.3 km/h 83 % 0 mm 0 W/m2
21:35 16.6 °C 13.7 °C 1019.9 hPa WSW 9.7 km/h 16.1 km/h 83 % 0 mm 0 W/m2
21:40 16.6 °C 13.7 °C 1020.2 hPa WSW 9.7 km/h 16.1 km/h 83 % 0 mm 0 W/m2
21:45 16.5 °C 13.6 °C 1020.2 hPa WSW 8 km/h 14.5 km/h 83 % 0 mm 0 W/m2
21:50 16.5 °C 13.6 °C 1019.9 hPa WSW 8 km/h 12.9 km/h 83 % 0 mm 0 W/m2
21:55 16.4 °C 13.7 °C 1019.9 hPa WSW 6.4 km/h 12.9 km/h 84 % 0 mm 0 W/m2
22:00 16.4 °C 13.7 °C 1019.9 hPa WSW 3.2 km/h 8 km/h 84 % 0 mm 0 W/m2
22:05 16.3 °C 13.6 °C 1019.9 hPa WSW 4.8 km/h 11.3 km/h 84 % 0 mm 0 W/m2
22:10 16.3 °C 13.6 °C 1019.9 hPa WSW 6.4 km/h 11.3 km/h 84 % 0 mm 0 W/m2
22:15 16.3 °C 13.6 °C 1019.9 hPa WSW 3.2 km/h 8 km/h 84 % 0 mm 0 W/m2
22:20 16.2 °C 13.5 °C 1019.9 hPa WSW 1.6 km/h 6.4 km/h 84 % 0 mm 0 W/m2
22:25 16.2 °C 13.5 °C 1020.2 hPa WSW 1.6 km/h 11.3 km/h 84 % 0 mm 0 W/m2
22:30 16.2 °C 13.5 °C 1020.2 hPa WSW 4.8 km/h 12.9 km/h 84 % 0 mm 0 W/m2
22:35 16.2 °C 13.7 °C 1020.2 hPa WSW 6.4 km/h 12.9 km/h 85 % 0 mm 0 W/m2
22:40 16.2 °C 13.7 °C 1020.2 hPa WSW 6.4 km/h 12.9 km/h 85 % 0 mm 0 W/m2
22:45 16.1 °C 13.6 °C 1020.2 hPa WSW 6.4 km/h 14.5 km/h 85 % 0 mm 0 W/m2
22:50 16.1 °C 13.6 °C 1020.2 hPa WSW 6.4 km/h 14.5 km/h 85 % 0 mm 0 W/m2
22:51 16.1 °C 13.6 °C 1020.2 hPa WSW 6.4 km/h 12.9 km/h 85 % 0 mm 0 W/m2
22:56 16.1 °C 13.8 °C 1020.2 hPa WSW 6.4 km/h 12.9 km/h 86 % 0 mm 0 W/m2
23:01 15.9 °C 13.7 °C 1020.2 hPa WSW 4.8 km/h 14.5 km/h 87 % 0 mm 0 W/m2
23:02 15.9 °C 13.9 °C 1020.2 hPa SW 4.8 km/h 14.5 km/h 88 % 0 mm 0 W/m2
23:07 15.7 °C 13.9 °C 1020.2 hPa SW 3.2 km/h 9.7 km/h 89 % 0 mm 0 W/m2
23:12 15.6 °C 13.8 °C 1020.2 hPa SW 1.6 km/h 8 km/h 89 % 0 mm 0 W/m2
23:17 15.6 °C 13.9 °C 1020.2 hPa Calm     90 % 0 mm 0 W/m2
23:22 15.5 °C 13.9 °C 1020.2 hPa Calm     90 % 0 mm 0 W/m2
23:27 15.4 °C 13.9 °C 1020.2 hPa Calm   1.6 km/h 91 % 0 mm 0 W/m2
23:32 15.3 °C 13.8 °C 1020.2 hPa Calm   1.6 km/h 91 % 0 mm 0 W/m2
23:37 15.3 °C 14 °C 1020.2 hPa Calm     92 % 0 mm 0 W/m2
23:42 15.2 °C 13.9 °C 1020.2 hPa Calm     92 % 0 mm 0 W/m2
23:48 15.2 °C 13.9 °C 1020.2 hPa Calm     92 % 0 mm 0 W/m2
23:53 15.1 °C 13.8 °C 1020.2 hPa Calm     92 % 0 mm 0 W/m2
23:58 15.1 °C 14 °C 1020.2 hPa Calm     93 % 0 mm 0 W/m2
Delerius-Weather
Compliments of Weather Underground - 2.25 mb

Data updates at regular intervals.